Regional Weather Roundup
Issued by NWS

Home | Current Version | Previous Version | Text Only | Print | Product List | Glossary Off
Versions: 1 2 3 4 5 6 7 8 9 10 11 12 13 14 15 16 17 18 19 20 21 22 23 24 25 26 27 28 29 30 31 32 33 34 35 36 37 38 39 40 41 42 43 44 45 46 47 48 49 50

429
ASUS45 KTFX 270410
RWRMT
MONTANA REGIONAL WEATHER ROUNDUP
NATIONAL WEATHER SERVICE GREAT FALLS MT
1000 PM MDT FRI MAY 26 2017

NOTE: "FAIR" INDICATES FEW OR NO CLOUDS BELOW 12000 FEET WITH NO
SIGNIFICANT WEATHER AND/OR OBSTRUCTIONS TO VISIBILITY.

MTZ001>007-043-270500-
WEST OF THE DIVIDE

CITY           SKY/WX    TMP DP  RH WIND       PRES   REMARKS
KALISPELL      PTCLDY    57  40  52 SW3       29.95R
MISSOULA       PTCLDY    54  42  64 N3        30.00R
BUTTE          MOCLDY    51  32  48 N6        30.05R
MULLAN PASS    CLEAR     48  31  51 NW6       30.08R
ANACONDA         N/A     48  37  66 SW6       30.04R
DEER LODGE       N/A     48  39  71 NW5       30.05R
EUREKA           N/A     57  43  58 CALM      29.94R
HAMILTON         N/A     61  36  39 CALM      30.02R
RONAN            N/A     59  41  51 CALM      30.03R
$$

MTZ008-052>055-270500-
SOUTHWEST MONTANA

CITY           SKY/WX    TMP DP  RH WIND       PRES   REMARKS
BOZEMAN        CLOUDY    53  37  54 W13       30.03R
DILLON         CLOUDY    51  32  48 NW3       30.03R
ENNIS          CLOUDY    50  34  53 N15       30.09R
THREE FORKS      N/A     54  36  50 CALM      30.03R
$$

MTZ009-010-012-014-046-048-049-054-270500-
EAST SLOPES AND CENTRAL MONTANA

CITY           SKY/WX    TMP DP  RH WIND       PRES   REMARKS
CUT BANK       CLEAR     54  34  46 W6        29.95R
GREAT FALLS    CLOUDY    51  38  60 SW10      29.97R
MALMSTROM AFB  MOCLDY    52  40  64 SW12      29.97R
HELENA         PTCLDY    51  42  71 W3        30.00R
CHOTEAU          N/A     54  37  54 W3        30.00R
$$

MTZ011-013-016-021-045-047-050-051-270500-
NORTH CENTRAL MONTANA

CITY           SKY/WX    TMP DP  RH WIND       PRES   REMARKS
HAVRE          CLOUDY    52  39  61 S10       29.90S
LEWISTOWN      MOCLDY    48  36  63 S10       29.99R
N BAR RANCH      N/A     45  32  61 SW5       30.03R
CHINOOK          N/A     54  41  62 CALM      29.90S
$$

MTZ017>020-022>027-061-062-270500-
NORTHEAST MONTANA

CITY           SKY/WX    TMP DP  RH WIND       PRES   REMARKS
GLASGOW        PTCLDY    51  41  68 NW6       29.90R
JORDAN           N/A     50  35  56 W8        29.93R
SIDNEY         PTCLDY    53  38  56 NW9       29.87R
WOLF POINT     CLOUDY    52  38  58 W8        29.88R
MALTA          MOCLDY    52  41  66 CALM      29.90S
PLENTYWOOD       N/A     52  36  54 W6        29.84R
POPLAR           N/A     54  37  54 W7        29.87R
$$

MTZ028>42-056>058-270500-
SOUTHCENTRAL AND SOUTHEAST MONTANA

CITY           SKY/WX    TMP DP  RH WIND       PRES   REMARKS
BAKER          CLOUDY    51  38  60 W5        29.92R
BILLINGS       PTCLDY    55  35  47 SW8       29.98R
LIVINGSTON     PTCLDY    49  38  65 E7        30.02R
MILES CITY     CLOUDY    55  31  39 NW7       29.93R
BIG TIMBER     PTCLDY    46  37  71 SW8       30.04R
FORSYTH          N/A     61  34  36 CALM      29.93R
LAUREL           N/A     50  36  58 SW1       29.98S
ROUNDUP          N/A     55  39  54 SW7       29.92R
$$

REGIONAL REPORTS...DAKOTAS

CITY           SKY/WX    TMP DP  RH WIND       PRES   REMARKS
WILLISTON      CLEAR     53  39  59 W8        29.84R
MINOT          CLEAR     54  37  52 SW9       29.78R
DICKINSON      MOCLDY    48  34  58 W8        29.87R
BEACH            N/A     50  37  62 SW6       29.93R
CROSBY           N/A     54  41  62 W12       29.81R
TIOGA            N/A     50  39  66 W10       29.83S
WATFORD CITY     N/A     52  39  62 W7        29.85R
BISMARCK       CLOUDY    55  38  52 SW6       29.85R
GRAND FORKS    CLEAR     55  43  63 SW10      29.77R
FARGO          PTCLDY    56  42  59 SW6       29.81R
BUFFALO SD       N/A     57  36  45 NW6       29.87R
RAPID CITY     CLOUDY    51  48  89 E3        29.97R
$$

REGIONAL REPORTS...WYOMING/IDAHO/WASHINGTON

CITY           SKY/WX    TMP DP  RH WIND       PRES   REMARKS
GILLETTE       CLOUDY    47  45  93 W6        30.02R
SHERIDAN       CLOUDY    47  43  86 SW8       30.01S
BUFFALO WY     CLOUDY    45  38  76 NW10      30.05R
CODY           CLOUDY    45  37  73 SW3       30.05R
YELLOWSTONE LA   N/A     30  30 100 CALM      30.11R
IDAHO FALLS    CLOUDY    45  40  82 S5        30.09R
SALMON         CLOUDY    55  37  50 CALM      29.98R
BOISE          PTCLDY    62  39  42 S14       30.00R
SPOKANE        PTCLDY    66  39  37 SW8       29.97R
$$

REGIONAL REPORTS...ALBERTA

CITY           SKY/WX    TMP DP  RH WIND       PRES   REMARKS
EDMONTON       CLEAR     61  39  44 NW3       29.80R
CALGARY        MOCLDY    63  34  34 W3        29.90R
LETHBRIDGE     PTCLDY    52  39  62 SW8       29.90R
MEDICINE HAT   CLEAR     55  41  58 SW9       29.85R
WATERTON GATE    N/A     48  34  57 SW6         N/A
MILK RIVER       N/A     50  43  76 W6          N/A
ONEFOUR          N/A     52  37  58 SW3         N/A
$$

REGIONAL REPORTS...SASKATCHEWAN

CITY           SKY/WX    TMP DP  RH WIND       PRES   REMARKS
SWIFT CURRENT  LGT RAIN  50  46  87 SW17      29.81F
REGINA         LGT RAIN  52  41  66 W12       29.75R
SASKATOON      PTCLDY    50  37  62 NW3       29.74R
CYPRESS HILLS    N/A     45  32  61 W2          N/A
VAL MARIE        N/A     48  36  61 S5          N/A
ROCKGLEN         N/A     48  37  66 W12G18      N/A
ASSINIBOIA       N/A     59  41  51 NW6         N/A
$$




USA.gov is the U.S. government's official web portal to all federal, state and local government web resources and services.